Time,TemperatureF,DewpointF,PressureIn,WindDirection,WindDirectionDegrees,WindSpeedMPH,WindSpeedGustMPH,Humidity,HourlyPrecipIn,Conditions,Clouds,dailyrainin,SolarRadiationWatts/m^2,SoftwareType,DateUTC
2013-06-13 00:12:00,80.0,74.0,-100.00,West,272,2.0,5.0,81,0.00,,,0.00,0.000000,,2013-06-13 05:12:00,
2013-06-13 00:24:00,80.0,74.0,-100.00,West,272,2.0,5.0,81,0.00,,,0.00,0.000000,,2013-06-13 05:24:00,
2013-06-13 00:33:00,80.0,74.0,-100.00,West,272,2.0,5.0,81,0.00,,,0.00,0.000000,,2013-06-13 05:33:00,
2013-06-13 00:43:00,80.0,74.0,-100.00,West,272,2.0,5.0,81,0.00,,,0.00,0.000000,,2013-06-13 05:43:00,
2013-06-13 00:50:00,79.0,72.0,-100.00,SW,223,2.0,7.0,80,0.00,,,0.00,0.000000,,2013-06-13 05:50:00,
2013-06-13 01:11:00,79.0,72.0,-100.00,SW,223,2.0,7.0,80,0.00,,,0.00,0.000000,,2013-06-13 06:11:00,
2013-06-13 01:22:00,79.0,72.0,-100.00,SW,223,2.0,7.0,80,0.00,,,0.00,0.000000,,2013-06-13 06:22:00,
2013-06-13 01:33:00,79.0,72.0,-100.00,SW,223,2.0,7.0,80,0.00,,,0.00,0.000000,,2013-06-13 06:33:00,
2013-06-13 01:44:00,79.0,72.0,-100.00,SW,223,2.0,7.0,80,0.00,,,0.00,0.000000,,2013-06-13 06:44:00,
2013-06-13 01:50:00,78.0,73.0,-100.00,West,277,2.0,4.0,86,0.00,,,0.00,0.000000,,2013-06-13 06:50:00,
2013-06-13 02:12:00,78.0,73.0,-100.00,West,277,2.0,4.0,86,0.00,,,0.00,0.000000,,2013-06-13 07:12:00,
2013-06-13 02:22:00,78.0,73.0,-100.00,West,277,2.0,4.0,86,0.00,,,0.00,0.000000,,2013-06-13 07:22:00,
2013-06-13 02:33:00,78.0,73.0,-100.00,West,277,2.0,4.0,86,0.00,,,0.00,0.000000,,2013-06-13 07:33:00,
2013-06-13 02:42:00,78.0,73.0,-100.00,West,277,2.0,4.0,86,0.00,,,0.00,0.000000,,2013-06-13 07:42:00,
2013-06-13 02:50:00,77.0,74.0,-100.00,West,262,3.0,5.0,90,0.00,,,0.00,0.000000,,2013-06-13 07:50:00,
2013-06-13 03:11:00,77.0,74.0,-100.00,West,262,3.0,5.0,90,0.00,,,0.00,0.000000,,2013-06-13 08:11:00,
2013-06-13 03:22:00,77.0,74.0,-100.00,West,262,3.0,5.0,90,0.00,,,0.00,0.000000,,2013-06-13 08:22:00,
2013-06-13 03:32:00,77.0,74.0,-100.00,West,262,3.0,5.0,90,0.00,,,0.00,0.000000,,2013-06-13 08:32:00,
2013-06-13 03:43:00,77.0,74.0,-100.00,West,262,3.0,5.0,90,0.00,,,0.00,0.000000,,2013-06-13 08:43:00,
2013-06-13 03:50:00,76.0,74.0,-100.00,West,265,3.0,5.0,94,0.00,,,0.00,0.000000,,2013-06-13 08:50:00,
2013-06-13 04:12:00,76.0,74.0,-100.00,West,265,3.0,5.0,94,0.00,,,0.00,0.000000,,2013-06-13 09:12:00,
2013-06-13 04:22:00,76.0,74.0,-100.00,West,265,3.0,5.0,94,0.00,,,0.00,0.000000,,2013-06-13 09:22:00,
2013-06-13 04:32:00,76.0,74.0,-100.00,West,265,3.0,5.0,94,0.00,,,0.00,0.000000,,2013-06-13 09:32:00,
2013-06-13 04:42:00,76.0,74.0,-100.00,West,265,3.0,5.0,94,0.00,,,0.00,0.000000,,2013-06-13 09:42:00,
2013-06-13 04:50:00,76.0,74.0,-100.00,West,277,3.0,6.0,95,0.00,,,0.00,0.000000,,2013-06-13 09:50:00,
2013-06-13 05:11:00,76.0,74.0,-100.00,West,277,3.0,6.0,95,0.00,,,0.00,0.000000,,2013-06-13 10:11:00,
2013-06-13 05:22:00,76.0,74.0,-100.00,West,277,3.0,6.0,95,0.00,,,0.00,0.000000,,2013-06-13 10:22:00,
2013-06-13 05:33:00,76.0,74.0,-100.00,West,277,3.0,6.0,95,0.00,,,0.00,0.000000,,2013-06-13 10:33:00,
2013-06-13 05:43:00,76.0,74.0,-100.00,West,277,3.0,6.0,95,0.00,,,0.00,0.000000,,2013-06-13 10:43:00,
2013-06-13 05:50:00,76.0,74.0,-100.00,West,273,2.0,7.0,95,0.00,,,0.00,0.000000,,2013-06-13 10:50:00,
2013-06-13 06:11:00,76.0,74.0,-100.00,West,273,2.0,7.0,95,0.00,,,0.00,0.000000,,2013-06-13 11:11:00,
2013-06-13 06:23:00,76.0,74.0,-100.00,West,273,2.0,7.0,95,0.00,,,0.00,0.000000,,2013-06-13 11:23:00,
2013-06-13 06:32:00,76.0,74.0,-100.00,West,273,2.0,7.0,95,0.00,,,0.00,0.000000,,2013-06-13 11:32:00,
2013-06-13 06:42:00,76.0,74.0,-100.00,West,273,2.0,7.0,95,0.00,,,0.00,0.000000,,2013-06-13 11:42:00,
2013-06-13 06:50:00,77.0,75.0,-100.00,West,275,3.0,6.0,94,0.00,,,0.00,45.000000,,2013-06-13 11:50:00,
2013-06-13 07:12:00,77.0,75.0,-100.00,West,275,3.0,6.0,94,0.00,,,0.00,45.000000,,2013-06-13 12:12:00,
2013-06-13 07:22:00,77.0,75.0,-100.00,West,275,3.0,6.0,94,0.00,,,0.00,45.000000,,2013-06-13 12:22:00,
2013-06-13 07:35:00,77.0,75.0,-100.00,West,275,3.0,6.0,94,0.00,,,0.00,45.000000,,2013-06-13 12:35:00,
2013-06-13 07:42:00,77.0,75.0,-100.00,West,275,3.0,6.0,94,0.00,,,0.00,45.000000,,2013-06-13 12:42:00,
2013-06-13 07:50:00,80.0,75.0,-100.00,WNW,291,5.0,9.0,86,0.00,,,0.00,197.000000,,2013-06-13 12:50:00,
2013-06-13 08:11:00,80.0,75.0,-100.00,WNW,291,5.0,9.0,86,0.00,,,0.00,197.000000,,2013-06-13 13:11:00,
2013-06-13 08:22:00,80.0,75.0,-100.00,WNW,291,5.0,9.0,86,0.00,,,0.00,197.000000,,2013-06-13 13:22:00,
2013-06-13 08:32:00,80.0,75.0,-100.00,WNW,291,5.0,9.0,86,0.00,,,0.00,197.000000,,2013-06-13 13:32:00,
2013-06-13 08:43:00,80.0,75.0,-100.00,WNW,291,5.0,9.0,86,0.00,,,0.00,197.000000,,2013-06-13 13:43:00,
2013-06-13 08:50:00,82.0,75.0,-100.00,NW,308,7.0,13.0,79,0.00,,,0.00,399.000000,,2013-06-13 13:50:00,
2013-06-13 09:11:00,82.0,75.0,-100.00,NW,308,7.0,13.0,79,0.00,,,0.00,399.000000,,2013-06-13 14:11:00,
2013-06-13 09:22:00,82.0,75.0,-100.00,NW,308,7.0,13.0,79,0.00,,,0.00,399.000000,,2013-06-13 14:22:00,
2013-06-13 09:33:00,82.0,75.0,-100.00,NW,308,7.0,13.0,79,0.00,,,0.00,399.000000,,2013-06-13 14:33:00,
2013-06-13 09:43:00,82.0,75.0,-100.00,NW,308,7.0,13.0,79,0.00,,,0.00,399.000000,,2013-06-13 14:43:00,
2013-06-13 09:50:00,86.0,76.0,-100.00,West,267,6.0,12.0,72,0.00,,,0.00,578.000000,,2013-06-13 14:50:00,
2013-06-13 10:12:00,86.0,76.0,-100.00,West,267,6.0,12.0,72,0.00,,,0.00,578.000000,,2013-06-13 15:12:00,
2013-06-13 10:22:00,86.0,76.0,-100.00,West,267,6.0,12.0,72,0.00,,,0.00,578.000000,,2013-06-13 15:22:00,
2013-06-13 10:33:00,86.0,76.0,-100.00,West,267,6.0,12.0,72,0.00,,,0.00,578.000000,,2013-06-13 15:33:00,
2013-06-13 10:43:00,86.0,76.0,-100.00,West,267,6.0,12.0,72,0.00,,,0.00,578.000000,,2013-06-13 15:43:00,
2013-06-13 10:50:00,88.0,75.0,-100.00,WNW,292,5.0,11.0,66,0.00,,,0.00,743.000000,,2013-06-13 15:50:00,
2013-06-13 11:12:00,88.0,75.0,-100.00,WNW,292,5.0,11.0,66,0.00,,,0.00,743.000000,,2013-06-13 16:12:00,
2013-06-13 11:22:00,88.0,75.0,-100.00,WNW,292,5.0,11.0,66,0.00,,,0.00,743.000000,,2013-06-13 16:22:00,
2013-06-13 11:33:00,88.0,75.0,-100.00,WNW,292,5.0,11.0,66,0.00,,,0.00,743.000000,,2013-06-13 16:33:00,
2013-06-13 11:43:00,88.0,75.0,-100.00,WNW,292,5.0,11.0,66,0.00,,,0.00,743.000000,,2013-06-13 16:43:00,
2013-06-13 11:50:00,90.0,74.0,-100.00,West,271,6.0,12.0,60,0.00,,,0.00,810.000000,,2013-06-13 16:50:00,
2013-06-13 12:11:00,90.0,74.0,-100.00,West,271,6.0,12.0,60,0.00,,,0.00,810.000000,,2013-06-13 17:11:00,
2013-06-13 12:24:00,90.0,74.0,-100.00,West,271,6.0,12.0,60,0.00,,,0.00,810.000000,,2013-06-13 17:24:00,
2013-06-13 12:33:00,90.0,74.0,-100.00,West,271,6.0,12.0,60,0.00,,,0.00,810.000000,,2013-06-13 17:33:00,
2013-06-13 12:43:00,90.0,74.0,-100.00,West,271,6.0,12.0,60,0.00,,,0.00,810.000000,,2013-06-13 17:43:00,
2013-06-13 12:50:00,92.0,72.0,-100.00,West,274,6.0,12.0,53,0.00,,,0.00,896.000000,,2013-06-13 17:50:00,
2013-06-13 13:11:00,92.0,72.0,-100.00,West,274,6.0,12.0,53,0.00,,,0.00,896.000000,,2013-06-13 18:11:00,
2013-06-13 13:22:00,92.0,72.0,-100.00,West,274,6.0,12.0,53,0.00,,,0.00,896.000000,,2013-06-13 18:22:00,
2013-06-13 13:33:00,92.0,72.0,-100.00,West,274,6.0,12.0,53,0.00,,,0.00,896.000000,,2013-06-13 18:33:00,
2013-06-13 13:43:00,92.0,72.0,-100.00,West,274,6.0,12.0,53,0.00,,,0.00,896.000000,,2013-06-13 18:43:00,
2013-06-13 13:50:00,93.0,70.0,-100.00,WSW,246,7.0,15.0,48,0.00,,,0.00,912.000000,,2013-06-13 18:50:00,
2013-06-13 14:11:00,93.0,70.0,-100.00,WSW,246,7.0,15.0,48,0.00,,,0.00,912.000000,,2013-06-13 19:11:00,
2013-06-13 14:22:00,93.0,70.0,-100.00,WSW,246,7.0,15.0,48,0.00,,,0.00,912.000000,,2013-06-13 19:22:00,
2013-06-13 14:33:00,93.0,70.0,-100.00,WSW,246,7.0,15.0,48,0.00,,,0.00,912.000000,,2013-06-13 19:33:00,
2013-06-13 14:43:00,93.0,70.0,-100.00,WSW,246,7.0,15.0,48,0.00,,,0.00,912.000000,,2013-06-13 19:43:00,
2013-06-13 14:50:00,94.0,69.0,-100.00,West,268,8.0,14.0,45,0.00,,,0.00,867.000000,,2013-06-13 19:50:00,
2013-06-13 15:11:00,94.0,69.0,-100.00,West,268,8.0,14.0,45,0.00,,,0.00,867.000000,,2013-06-13 20:11:00,
2013-06-13 15:22:00,94.0,69.0,-100.00,West,268,8.0,14.0,45,0.00,,,0.00,867.000000,,2013-06-13 20:22:00,
2013-06-13 15:33:00,94.0,69.0,-100.00,West,268,8.0,14.0,45,0.00,,,0.00,867.000000,,2013-06-13 20:33:00,
2013-06-13 15:44:00,94.0,69.0,-100.00,West,268,8.0,14.0,45,0.00,,,0.00,867.000000,,2013-06-13 20:44:00,
2013-06-13 15:50:00,94.0,69.0,-100.00,West,261,6.0,15.0,45,0.00,,,0.00,723.000000,,2013-06-13 20:50:00,
2013-06-13 16:11:00,94.0,69.0,-100.00,West,261,6.0,15.0,45,0.00,,,0.00,723.000000,,2013-06-13 21:11:00,
2013-06-13 16:22:00,94.0,69.0,-100.00,West,261,6.0,15.0,45,0.00,,,0.00,723.000000,,2013-06-13 21:22:00,
2013-06-13 16:34:00,94.0,69.0,-100.00,West,261,6.0,15.0,45,0.00,,,0.00,723.000000,,2013-06-13 21:34:00,
2013-06-13 16:43:00,94.0,69.0,-100.00,West,261,6.0,15.0,45,0.00,,,0.00,723.000000,,2013-06-13 21:43:00,
2013-06-13 16:50:00,94.0,69.0,-100.00,WNW,284,7.0,13.0,44,0.00,,,-99.99,549.000000,,2013-06-13 21:50:00,
2013-06-13 17:11:00,94.0,69.0,-100.00,WNW,284,7.0,13.0,44,0.00,,,-99.99,549.000000,,2013-06-13 22:11:00,
2013-06-13 17:22:00,94.0,69.0,-100.00,WNW,284,7.0,13.0,44,0.00,,,-99.99,549.000000,,2013-06-13 22:22:00,
2013-06-13 17:33:00,94.0,69.0,-100.00,WNW,284,7.0,13.0,44,0.00,,,-99.99,549.000000,,2013-06-13 22:33:00,
2013-06-13 17:43:00,94.0,69.0,-100.00,WNW,284,7.0,13.0,44,0.00,,,-99.99,549.000000,,2013-06-13 22:43:00,
2013-06-13 17:50:00,93.0,68.0,-100.00,WNW,295,6.0,11.0,45,0.00,,,0.00,425.000000,,2013-06-13 22:50:00,
2013-06-13 18:11:00,93.0,68.0,-100.00,WNW,295,6.0,11.0,45,0.00,,,0.00,425.000000,,2013-06-13 23:11:00,
2013-06-13 18:22:00,93.0,68.0,-100.00,WNW,295,6.0,11.0,45,0.00,,,0.00,425.000000,,2013-06-13 23:22:00,
2013-06-13 18:32:00,93.0,68.0,-100.00,WNW,295,6.0,11.0,45,0.00,,,0.00,425.000000,,2013-06-13 23:32:00,
2013-06-13 18:43:00,93.0,68.0,-100.00,WNW,295,6.0,11.0,45,0.00,,,0.00,425.000000,,2013-06-13 23:43:00,
2013-06-13 18:50:00,91.0,70.0,-100.00,WNW,289,6.0,11.0,50,0.00,,,0.00,238.000000,,2013-06-13 23:50:00,
2013-06-13 19:12:00,91.0,70.0,-100.00,WNW,289,6.0,11.0,50,0.00,,,0.00,238.000000,,2013-06-14 00:12:00,
2013-06-13 19:22:00,91.0,70.0,-100.00,WNW,289,6.0,11.0,50,0.00,,,0.00,238.000000,,2013-06-14 00:22:00,
2013-06-13 19:34:00,91.0,70.0,-100.00,WNW,289,6.0,11.0,50,0.00,,,0.00,238.000000,,2013-06-14 00:34:00,
2013-06-13 19:43:00,91.0,70.0,-100.00,WNW,289,6.0,11.0,50,0.00,,,0.00,238.000000,,2013-06-14 00:43:00,
2013-06-13 19:50:00,87.0,71.0,-100.00,West,280,2.0,8.0,59,0.00,,,0.00,66.000000,,2013-06-14 00:50:00,
2013-06-13 20:11:00,87.0,71.0,-100.00,West,280,2.0,8.0,59,0.00,,,0.00,66.000000,,2013-06-14 01:11:00,
2013-06-13 20:22:00,87.0,71.0,-100.00,West,280,2.0,8.0,59,0.00,,,0.00,66.000000,,2013-06-14 01:22:00,
2013-06-13 20:32:00,87.0,71.0,-100.00,West,280,2.0,8.0,59,0.00,,,0.00,66.000000,,2013-06-14 01:32:00,
2013-06-13 20:43:00,87.0,71.0,-100.00,West,280,2.0,8.0,59,0.00,,,0.00,66.000000,,2013-06-14 01:43:00,
2013-06-13 20:50:00,84.0,72.0,-100.00,West,260,0.0,4.0,68,0.00,,,0.00,2.000000,,2013-06-14 01:50:00,
2013-06-13 21:11:00,84.0,72.0,-100.00,West,260,0.0,4.0,68,0.00,,,0.00,2.000000,,2013-06-14 02:11:00,
2013-06-13 21:22:00,84.0,72.0,-100.00,West,260,0.0,4.0,68,0.00,,,0.00,2.000000,,2013-06-14 02:22:00,
2013-06-13 21:32:00,84.0,72.0,-100.00,West,260,0.0,4.0,68,0.00,,,0.00,2.000000,,2013-06-14 02:32:00,
2013-06-13 21:43:00,84.0,72.0,-100.00,West,260,0.0,4.0,68,0.00,,,0.00,2.000000,,2013-06-14 02:43:00,
2013-06-13 21:50:00,82.0,72.0,-100.00,West,266,2.0,4.0,73,0.00,,,0.00,0.000000,,2013-06-14 02:50:00,
2013-06-13 22:12:00,82.0,72.0,-100.00,West,266,2.0,4.0,73,0.00,,,0.00,0.000000,,2013-06-14 03:12:00,
2013-06-13 22:22:00,82.0,72.0,-100.00,West,266,2.0,4.0,73,0.00,,,0.00,0.000000,,2013-06-14 03:22:00,
2013-06-13 22:34:00,82.0,72.0,-100.00,West,266,2.0,4.0,73,0.00,,,0.00,0.000000,,2013-06-14 03:34:00,
2013-06-13 22:43:00,82.0,72.0,-100.00,West,266,2.0,4.0,73,0.00,,,0.00,0.000000,,2013-06-14 03:43:00,
2013-06-13 22:50:00,81.0,72.0,-100.00,West,268,2.0,6.0,75,0.00,,,0.00,0.000000,,2013-06-14 03:50:00,
2013-06-13 23:12:00,81.0,72.0,-100.00,West,268,2.0,6.0,75,0.00,,,0.00,0.000000,,2013-06-14 04:12:00,
2013-06-13 23:22:00,81.0,72.0,-100.00,West,268,2.0,6.0,75,0.00,,,0.00,0.000000,,2013-06-14 04:22:00,
2013-06-13 23:33:00,81.0,72.0,-100.00,West,268,2.0,6.0,75,0.00,,,0.00,0.000000,,2013-06-14 04:33:00,
2013-06-13 23:43:00,81.0,72.0,-100.00,West,268,2.0,6.0,75,0.00,,,0.00,0.000000,,2013-06-14 04:43:00,
2013-06-13 23:50:00,80.0,72.0,-100.00,WSW,258,2.0,5.0,76,0.00,,,0.00,0.000000,,2013-06-14 04:50:00,